星链-35189(STARLINK-35189)

导读 | 豆包AI

STARLINK-35189是美国SpaceX星链互联网星座的卫星,于2025年9月21日发射。作为星链低轨卫星星座的组成部分,它将为全球提供高速卫星互联网服务,尤其覆盖偏远地区。星链持续批量组网,该卫星的入轨进一步扩充了星座规模,巩固美国低轨卫星通信布局,推进全球卫星互联网覆盖进程。

基本信息
目录编号:
65676
目录名称:
STARLINK-35189
国际标识:
2025-212A
轨道中心:
EARTH
卫星名称:
星链-35189
卫星全名:
星链-35189(STARLINK-35189)
卫星状态:
在轨 (已飞行195 天)
发射日期:
2025-09-21 UTC
国别 :
美国 (US)
星等 :
--
轨道信息
数据来源 国际轨道数据
星历时间: 2026-04-04T01:59:34+0800
17小时前
查看轨道信息
半长轴: 6853.45km
偏心率: 0.0000876
轨道倾角: 53.159°
近地点辐角 115.581°
升交点赤经 229.037°
平近点角 244.528°
近地点: 474.712km
远地点: 475.914km
周期: 94.107分钟
每日圈数: 15.301674
详细信息
固有亮度:
5
最大亮度:
2.5
卫星平台:
Starlink V1.0
覆盖范围:
全球
运营商:
太空探索技术公司
运营商所在国:
美国
制造商(研发单位):
太空探索技术公司
制造商所在国:
美国
使用方式:
暂无
卫星简介
Starlink 计划是 SpaceX 推出的全球卫星互联网项目,通过发射低轨道卫星,为全球尤其是偏远地区提供高速、低延迟的互联网服务。自 2019 年起,Starlink 已部署数千颗卫星,旨在缩小全球数字鸿沟,推动互联网普及。该项目还为军事、航空等行业提供通信支持,带来广泛经济效益。
2D轨道图
3D轨道图
轨道高度分析图
轨道倾角分析图
轨道综合分析图
查看轨道综合分析图